Weather History for KEYW - August, 2013

Change the Weather History Date:

Saturday, August 3, 2013

  Actual Average Record
Temperature  
Mean Temperature 86 °F 85 °F  
Max Temperature 88 °F 90 °F 95 °F (1957)
Min Temperature 83 °F 80 °F 72 °F (1910)
Degree Days  
Heating Degree Days 0 0  
Month to date heating degree days 0 0  
Since 1 June heating degree days 0 0  
Since 1 July heating degree days 0 0  
Cooling Degree Days 21 20  
Month to date cooling degree days 61 60  
Year to date cooling degree days 2804 2645  
Since 1 June cooling degree days 1175 1215  
Growing Degree Days 35 (Base 50)    
Moisture  
Dew Point 75 °F    
Average Humidity 71    
Maximum Humidity 79    
Minimum Humidity 63    
Precipitation  
Precipitation 0.00 in 0.15 in 3.14 in (2015)
Month to date precipitation 0.01 0.42  
Year to date precipitation 31.14 18.71  
Snow  
Snow 0.00 in - - ()
Month to date snowfall 0.0  
Since 1 June snowfall 0.0  
Since 1 July snowfall 0.0  
Snow Depth 0.00 in    
Sea Level Pressure  
Sea Level Pressure 30.09 in    
Wind  
Wind Speed 5 mph (South)    
Max Wind Speed 13 mph    
Max Gust Speed 18 mph    
Visibility 10 miles    
Events      
T = Trace of Precipitation, MM = Missing Value Source: NWS Daily Summary

Daily Weather History Graph

Daily Weather History Graph

Search for Another Location

Airport or City:

Trip Planner

Search our weather history database for the weather conditions in past years. The results will help you decide how hot, cold, wet, or windy it might be!

Date:

Astronomy

Aug. 03, 2013 Rise Set
Actual Time 6:56 AM EDT 8:09 PM EDT
Civil Twilight 6:32 AM EDT 8:33 PM EDT
Nautical Twilight 6:03 AM EDT 9:02 PM EDT
Astronomical Twilight 5:33 AM EDT 9:32 PM EDT
Moon 4:08 AM EDT (8/3) 5:47 PM EDT (8/3)
Length of Visible Light 14h 01m
Length of Day
13h 13m
Waning Crescent, 9% of the Moon is Illuminated
Aug 3
Waning Crescent
Aug 6
New
Aug 14
First Quarter
Aug 20
Full
Aug 28
Last Quarter

Hourly Weather History & Observations

Time (EDT) Temp. Heat Index Dew Point Humidity Pressure Visibility Wind Dir Wind Speed Gust Speed Precip Events Conditions
12:53 AM 84.0 °F 92.6 °F 75.9 °F 76% 30.07 in 10.0 mi South 8.1 mph - N/A   Partly Cloudy
1:53 AM 84.0 °F 92.6 °F 75.9 °F 76% 30.06 in 10.0 mi South 9.2 mph - N/A   Scattered Clouds
2:53 AM 82.9 °F 90.8 °F 75.9 °F 79% 30.05 in 10.0 mi SSW 10.4 mph - N/A   Partly Cloudy
3:53 AM 82.9 °F 90.8 °F 75.9 °F 79% 30.04 in 10.0 mi SSW 8.1 mph - N/A   Partly Cloudy
4:53 AM 82.9 °F 90.2 °F 75.0 °F 77% 30.05 in 10.0 mi WSW 5.8 mph - N/A   Partly Cloudy
5:53 AM 82.9 °F 90.2 °F 75.0 °F 77% 30.05 in 10.0 mi SW 4.6 mph - N/A   Partly Cloudy
6:53 AM 82.9 °F 90.2 °F 75.0 °F 77% 30.05 in 10.0 mi SSW 5.8 mph - N/A   Clear
7:53 AM 82.9 °F 90.8 °F 75.9 °F 79% 30.08 in 10.0 mi South 5.8 mph - N/A   Partly Cloudy
8:53 AM 84.0 °F 92.6 °F 75.9 °F 76% 30.09 in 10.0 mi SSE 6.9 mph - N/A   Clear
9:53 AM 84.9 °F 94.1 °F 75.9 °F 74% 30.11 in 10.0 mi SSE 6.9 mph - N/A   Scattered Clouds
10:53 AM 84.9 °F 94.1 °F 75.9 °F 74% 30.13 in 10.0 mi South 6.9 mph - N/A   Scattered Clouds
11:53 AM 86.0 °F 96.0 °F 75.9 °F 72% 30.13 in 10.0 mi SSE 9.2 mph - N/A   Partly Cloudy
12:53 PM 88.0 °F 98.5 °F 75.9 °F 67% 30.13 in 10.0 mi SSE 9.2 mph - N/A   Partly Cloudy
1:53 PM 87.1 °F 96.3 °F 75.0 °F 67% 30.12 in 10.0 mi SSE 6.9 mph - N/A   Partly Cloudy
2:53 PM 87.1 °F 96.3 °F 75.0 °F 67% 30.10 in 10.0 mi SSW 5.8 mph - N/A   Clear
3:53 PM 87.1 °F 95.4 °F 73.9 °F 65% 30.10 in 10.0 mi South 6.9 mph - N/A   Clear
4:53 PM 87.1 °F 95.4 °F 73.9 °F 65% 30.10 in 10.0 mi South 5.8 mph - N/A   Clear
5:53 PM 86.0 °F 93.8 °F 73.9 °F 67% 30.09 in 10.0 mi Variable 3.5 mph - N/A   Clear
6:53 PM 84.9 °F 92.1 °F 73.9 °F 69% 30.09 in 10.0 mi WSW 3.5 mph - N/A   Clear
7:53 PM 84.9 °F 92.1 °F 73.9 °F 69% 30.09 in 10.0 mi Calm Calm - N/A   Partly Cloudy
8:53 PM 84.9 °F 93.3 °F 75.0 °F 72% 30.11 in 10.0 mi Calm Calm - N/A   Partly Cloudy
9:53 PM 84.9 °F 94.1 °F 75.9 °F 74% 30.12 in 10.0 mi Calm Calm - N/A   Clear
10:53 PM 84.0 °F 92.6 °F 75.9 °F 76% 30.13 in 10.0 mi Calm Calm - N/A   Clear
11:53 PM 84.0 °F 92.6 °F 75.9 °F 76% 30.12 in 10.0 mi ENE 3.5 mph - N/A   Clear